SKY137 RJBE-RJFK

Flight info

Callsign SKY137
Flight time 0h 55m
Altitude 28000
Route MUKRI ATKAS TANTA Y236 VEXOT Y756 VIRUD Y757 SPICA
Aircraft B738/M-SDE3FGILORVW/LB1

Departure

Time 2026-05-08 13:20
Airport Kobe Airport (RJBE)

Arrival

Time 2026-05-08 14:16
Airport Kagoshima Airport (RJFK)
Time Latitude Longitude Altitude Speed Heading
2026-05-08 12:40 34.63605 135.22863 34 ft 0 kts 354°
2026-05-08 13:03 34.63603 135.22863 34 ft 2 kts 354°
2026-05-08 13:03 34.63578 135.22866 34 ft 3 kts 353°
2026-05-08 13:03 34.63556 135.22868 33 ft 4 kts 20°
2026-05-08 13:04 34.63539 135.22849 32 ft 4 kts 73°
2026-05-08 13:04 34.63535 135.22820 33 ft 2 kts 84°
2026-05-08 13:04 34.63534 135.22818 33 ft 0 kts 84°
2026-05-08 13:10 34.63534 135.22820 34 ft 1 kts 88°
2026-05-08 13:10 34.63523 135.22847 34 ft 7 kts 129°
2026-05-08 13:10 34.63485 135.22917 34 ft 11 kts 106°
2026-05-08 13:10 34.63486 135.23010 34 ft 11 kts 85°
2026-05-08 13:11 34.63492 135.23099 34 ft 11 kts 85°
2026-05-08 13:11 34.63499 135.23187 34 ft 10 kts 84°
2026-05-08 13:11 34.63506 135.23271 34 ft 10 kts 84°
2026-05-08 13:11 34.63513 135.23354 34 ft 10 kts 84°
2026-05-08 13:12 34.63520 135.23446 34 ft 11 kts 84°
2026-05-08 13:12 34.63523 135.23491 34 ft 0 kts 85°
2026-05-08 13:13 34.63524 135.23500 34 ft 4 kts 84°
2026-05-08 13:13 34.63528 135.23552 34 ft 7 kts 84°
2026-05-08 13:14 34.63533 135.23612 34 ft 7 kts 84°
2026-05-08 13:14 34.63532 135.23670 34 ft 7 kts 104°
2026-05-08 13:14 34.63504 135.23712 34 ft 6 kts 150°
2026-05-08 13:14 34.63483 135.23718 32 ft 4 kts 176°
2026-05-08 13:15 34.63473 135.23718 33 ft 0 kts 177°
2026-05-08 13:15 34.63471 135.23718 33 ft 0 kts 177°
2026-05-08 13:15 34.63467 135.23719 33 ft 1 kts 176°
2026-05-08 13:15 34.63457 135.23719 33 ft 2 kts 177°
2026-05-08 13:16 34.63450 135.23720 33 ft 0 kts 177°
2026-05-08 13:18 34.63441 135.23720 31 ft 3 kts 177°
2026-05-08 13:19 34.63409 135.23722 31 ft 5 kts 178°
2026-05-08 13:19 34.63379 135.23702 31 ft 5 kts 233°
2026-05-08 13:19 34.63372 135.23670 31 ft 0 kts 264°
2026-05-08 13:20 34.63364 135.23565 30 ft 41 kts 264°
2026-05-08 13:20 34.63312 135.22917 33 ft 111 kts 264°
2026-05-08 13:20 34.63230 135.21747 136 ft 159 kts 267°
2026-05-08 13:20 34.63072 135.20368 626 ft 178 kts 253°
2026-05-08 13:21 34.62435 135.18996 1147 ft 190 kts 238°
2026-05-08 13:21 34.61655 135.17694 1810 ft 195 kts 238°
2026-05-08 13:21 34.60791 135.16306 1944 ft 218 kts 237°
2026-05-08 13:21 34.59850 135.14788 2169 ft 230 kts 238°
2026-05-08 13:22 34.58898 135.13155 2352 ft 252 kts 239°
2026-05-08 13:22 34.57856 135.11305 2779 ft 270 kts 239°
2026-05-08 13:22 34.56753 135.09464 2973 ft 266 kts 247°
2026-05-08 13:22 34.56089 135.07442 3002 ft 254 kts 255°
2026-05-08 13:23 34.55776 135.05405 3000 ft 240 kts 277°
2026-05-08 13:23 34.55890 135.03397 3015 ft 240 kts 276°
2026-05-08 13:23 34.55960 135.01357 3021 ft 245 kts 275°
2026-05-08 13:23 34.56016 134.99290 2997 ft 243 kts 274°
2026-05-08 13:24 34.56057 134.97272 3005 ft 243 kts 275°
2026-05-08 13:24 34.56121 134.95228 3322 ft 243 kts 275°
2026-05-08 13:24 34.56186 134.93147 4290 ft 242 kts 276°
2026-05-08 13:24 34.56243 134.91154 5311 ft 240 kts 276°
2026-05-08 13:25 34.56302 134.89100 5802 ft 241 kts 276°
2026-05-08 13:25 34.56360 134.87045 5996 ft 246 kts 276°
2026-05-08 13:25 34.56416 134.85000 6010 ft 245 kts 276°
2026-05-08 13:25 34.56472 134.82938 6081 ft 246 kts 276°
2026-05-08 13:26 34.56528 134.80849 6708 ft 248 kts 276°
2026-05-08 13:26 34.56479 134.78775 7686 ft 248 kts 261°
2026-05-08 13:26 34.55770 134.76848 8644 ft 254 kts 242°
2026-05-08 13:26 34.54599 134.75208 9568 ft 260 kts 230°
2026-05-08 13:27 34.53248 134.73740 10391 ft 264 kts 227°
2026-05-08 13:27 34.51805 134.72232 10670 ft 286 kts 227°
2026-05-08 13:27 34.50233 134.70593 10860 ft 309 kts 226°
2026-05-08 13:27 34.48548 134.68827 11007 ft 331 kts 226°
2026-05-08 13:28 34.46788 134.66935 11417 ft 342 kts 227°
2026-05-08 13:28 34.45009 134.65001 12116 ft 344 kts 227°
2026-05-08 13:28 34.43229 134.63065 12899 ft 344 kts 227°
2026-05-08 13:28 34.41445 134.61127 13660 ft 346 kts 227°
2026-05-08 13:29 34.39647 134.59179 14262 ft 348 kts 228°
2026-05-08 13:29 34.37839 134.57217 14901 ft 349 kts 227°
2026-05-08 13:29 34.36028 134.55254 15516 ft 350 kts 227°
2026-05-08 13:29 34.34207 134.53282 16115 ft 352 kts 227°
2026-05-08 13:30 34.32373 134.51299 16688 ft 355 kts 227°
2026-05-08 13:30 34.30527 134.49305 17266 ft 357 kts 227°
2026-05-08 13:30 34.28671 134.47302 17839 ft 359 kts 227°
2026-05-08 13:30 34.26806 134.45290 18384 ft 360 kts 227°
2026-05-08 13:31 34.24928 134.43266 18871 ft 362 kts 227°
2026-05-08 13:31 34.23038 134.41230 19255 ft 366 kts 227°
2026-05-08 13:31 34.21133 134.39181 19777 ft 366 kts 227°
2026-05-08 13:31 34.19234 134.37134 20313 ft 367 kts 227°
2026-05-08 13:32 34.17322 134.35082 20762 ft 368 kts 227°
2026-05-08 13:32 34.15373 134.33060 21264 ft 371 kts 226°
2026-05-08 13:32 34.13421 134.31019 21750 ft 372 kts 228°
2026-05-08 13:32 34.11496 134.28908 21987 ft 377 kts 229°
2026-05-08 13:33 34.09553 134.26768 22396 ft 379 kts 229°
2026-05-08 13:33 34.07591 134.24642 22871 ft 379 kts 228°
2026-05-08 13:33 34.05622 134.22526 23318 ft 380 kts 228°
2026-05-08 13:33 34.03639 134.20404 23685 ft 382 kts 228°
2026-05-08 13:34 34.01649 134.18273 23969 ft 384 kts 228°
2026-05-08 13:34 33.99653 134.16133 24291 ft 385 kts 227°
2026-05-08 13:34 33.97644 134.13988 24639 ft 386 kts 227°
2026-05-08 13:34 33.95628 134.11835 24961 ft 388 kts 227°
2026-05-08 13:35 33.93600 134.09680 25303 ft 388 kts 227°
2026-05-08 13:35 33.91585 134.07541 25832 ft 384 kts 227°
2026-05-08 13:35 33.89621 134.05451 26390 ft 379 kts 227°
2026-05-08 13:35 33.87647 134.03347 26756 ft 379 kts 228°
2026-05-08 13:36 33.85677 134.01252 27175 ft 378 kts 227°
2026-05-08 13:36 33.83702 133.99145 27470 ft 379 kts 227°
2026-05-08 13:36 33.81739 133.97052 27937 ft 376 kts 228°
2026-05-08 13:36 33.79767 133.94962 27989 ft 380 kts 227°
2026-05-08 13:37 33.75810 133.90761 28053 ft 377 kts 227°
2026-05-08 13:37 33.71802 133.86702 28003 ft 377 kts 226°
2026-05-08 13:38 33.67895 133.82545 28020 ft 375 kts 228°
2026-05-08 13:38 33.65987 133.80405 27974 ft 376 kts 229°
2026-05-08 13:38 33.64045 133.78302 27982 ft 377 kts 228°
2026-05-08 13:39 33.62074 133.76215 27970 ft 379 kts 227°
2026-05-08 13:39 33.60048 133.74183 27974 ft 380 kts 226°
2026-05-08 13:39 33.58039 133.72114 27979 ft 381 kts 226°
2026-05-08 13:39 33.56003 133.70080 27997 ft 380 kts 229°
2026-05-08 13:40 33.52862 133.65106 28002 ft 374 kts 241°
2026-05-08 13:40 33.50313 133.59672 28004 ft 374 kts 244°
2026-05-08 13:41 33.49069 133.56933 27971 ft 375 kts 244°
2026-05-08 13:41 33.47819 133.54189 27992 ft 375 kts 244°
2026-05-08 13:41 33.46564 133.51448 27993 ft 375 kts 244°
2026-05-08 13:41 33.45306 133.48710 28003 ft 375 kts 243°
2026-05-08 13:42 33.42783 133.43239 28018 ft 376 kts 243°
2026-05-08 13:42 33.41353 133.40647 27988 ft 381 kts 236°
2026-05-08 13:42 33.39654 133.38187 27994 ft 378 kts 232°
2026-05-08 13:43 33.37804 133.35949 27990 ft 378 kts 229°
2026-05-08 13:43 33.35889 133.33784 28016 ft 381 kts 229°
2026-05-08 13:43 33.31985 133.29455 28027 ft 385 kts 229°
2026-05-08 13:44 33.28060 133.25075 28027 ft 387 kts 229°
2026-05-08 13:44 33.24149 133.20679 28007 ft 382 kts 229°
2026-05-08 13:45 33.20282 133.16341 28044 ft 382 kts 229°
2026-05-08 13:45 33.16410 133.11992 28027 ft 383 kts 229°
2026-05-08 13:46 33.12550 133.07677 28009 ft 384 kts 228°
2026-05-08 13:46 33.08664 133.03338 28010 ft 382 kts 229°
2026-05-08 13:47 33.04795 132.98984 28067 ft 383 kts 229°
2026-05-08 13:47 33.00870 132.94642 28019 ft 386 kts 228°
2026-05-08 13:48 32.98912 132.92460 27978 ft 385 kts 228°
2026-05-08 13:48 32.96956 132.90276 28024 ft 384 kts 228°
2026-05-08 13:48 32.93024 132.85974 28055 ft 385 kts 227°
2026-05-08 13:49 32.89119 132.81592 28048 ft 385 kts 229°
2026-05-08 13:49 32.85213 132.77210 28006 ft 386 kts 228°
2026-05-08 13:50 32.81297 132.72870 28031 ft 384 kts 228°
2026-05-08 13:50 32.77389 132.68546 28038 ft 384 kts 228°
2026-05-08 13:51 32.73478 132.64219 28042 ft 384 kts 228°
2026-05-08 13:51 32.69568 132.59899 28042 ft 384 kts 228°
2026-05-08 13:52 32.65653 132.55578 28045 ft 385 kts 228°
2026-05-08 13:52 32.61727 132.51250 28045 ft 386 kts 228°
2026-05-08 13:53 32.57796 132.46922 28023 ft 386 kts 228°
2026-05-08 13:53 32.53860 132.42595 28038 ft 386 kts 228°
2026-05-08 13:54 32.49918 132.38265 28052 ft 387 kts 228°
2026-05-08 13:54 32.45965 132.33928 28048 ft 388 kts 228°
2026-05-08 13:55 32.42012 132.29595 28036 ft 387 kts 228°
2026-05-08 13:55 32.38123 132.25346 28032 ft 366 kts 229°
2026-05-08 13:56 32.36416 132.23189 27725 ft 355 kts 236°
2026-05-08 13:56 32.35006 132.20843 27336 ft 346 kts 242°
2026-05-08 13:56 32.33764 132.18433 26901 ft 342 kts 242°
2026-05-08 13:56 32.32533 132.16043 26458 ft 339 kts 242°
2026-05-08 13:57 32.31312 132.13677 25991 ft 336 kts 242°
2026-05-08 13:57 32.30100 132.11337 25564 ft 333 kts 242°
2026-05-08 13:57 32.28894 132.09014 25132 ft 330 kts 242°
2026-05-08 13:57 32.27692 132.06704 24696 ft 329 kts 242°
2026-05-08 13:58 32.26498 132.04412 24250 ft 327 kts 242°
2026-05-08 13:58 32.25321 132.02155 23816 ft 326 kts 242°
2026-05-08 13:58 32.24131 131.99875 23330 ft 325 kts 242°
2026-05-08 13:58 32.22947 131.97608 22889 ft 323 kts 242°
2026-05-08 13:59 32.21771 131.95359 22434 ft 321 kts 242°
2026-05-08 13:59 32.20602 131.93124 21981 ft 319 kts 242°
2026-05-08 13:59 32.19443 131.90908 21531 ft 316 kts 243°
2026-05-08 13:59 32.18291 131.88706 21121 ft 314 kts 243°
2026-05-08 14:00 32.17144 131.86518 20724 ft 312 kts 243°
2026-05-08 14:00 32.16004 131.84345 20323 ft 311 kts 243°
2026-05-08 14:00 32.14870 131.82184 19944 ft 309 kts 243°
2026-05-08 14:00 32.13737 131.80027 19602 ft 310 kts 243°
2026-05-08 14:01 32.12582 131.77824 19248 ft 322 kts 243°
2026-05-08 14:01 32.11387 131.75543 18872 ft 331 kts 242°
2026-05-08 14:01 32.10166 131.73220 18480 ft 335 kts 242°
2026-05-08 14:01 32.08938 131.70890 18058 ft 334 kts 242°
2026-05-08 14:02 32.07719 131.68579 17649 ft 331 kts 242°
2026-05-08 14:02 32.06503 131.66274 17263 ft 329 kts 242°
2026-05-08 14:02 32.05705 131.64761 17008 ft 328 kts 242°
2026-05-08 14:02 32.04106 131.61731 16512 ft 323 kts 242°
2026-05-08 14:03 32.03323 131.60248 16278 ft 320 kts 242°
2026-05-08 14:03 32.01760 131.57287 15803 ft 317 kts 242°
2026-05-08 14:03 32.00991 131.55829 15570 ft 316 kts 242°
2026-05-08 14:03 31.99831 131.53632 15211 ft 316 kts 242°
2026-05-08 14:04 31.98671 131.51437 14858 ft 316 kts 241°
2026-05-08 14:04 31.97509 131.49239 14505 ft 316 kts 241°
2026-05-08 14:04 31.96346 131.47042 14144 ft 317 kts 241°
2026-05-08 14:04 31.95180 131.44841 13750 ft 317 kts 241°
2026-05-08 14:05 31.94008 131.42634 13335 ft 318 kts 241°
2026-05-08 14:05 31.92829 131.40428 12967 ft 318 kts 241°
2026-05-08 14:05 31.91651 131.38226 12595 ft 318 kts 241°
2026-05-08 14:05 31.90476 131.36033 12233 ft 316 kts 240°
2026-05-08 14:06 31.89311 131.33857 11882 ft 313 kts 240°
2026-05-08 14:06 31.88155 131.31700 11521 ft 310 kts 240°
2026-05-08 14:06 31.87012 131.29566 11178 ft 307 kts 240°
2026-05-08 14:06 31.85880 131.27453 10835 ft 304 kts 240°
2026-05-08 14:07 31.84756 131.25357 10493 ft 302 kts 240°
2026-05-08 14:07 31.83642 131.23274 10185 ft 298 kts 241°
2026-05-08 14:07 31.82558 131.21253 9941 ft 284 kts 241°
2026-05-08 14:07 31.81539 131.19367 9900 ft 265 kts 241°
2026-05-08 14:08 31.80544 131.17514 9325 ft 266 kts 241°
2026-05-08 14:08 31.79561 131.15682 8939 ft 265 kts 241°
2026-05-08 14:08 31.78580 131.13855 8626 ft 264 kts 241°
2026-05-08 14:08 31.77599 131.12030 8314 ft 264 kts 241°
2026-05-08 14:09 31.76632 131.10234 8017 ft 263 kts 241°
2026-05-08 14:09 31.75641 131.08393 7723 ft 263 kts 241°
2026-05-08 14:09 31.74678 131.06603 7432 ft 263 kts 241°
2026-05-08 14:09 31.73703 131.04787 7132 ft 263 kts 241°
2026-05-08 14:10 31.72714 131.02944 6826 ft 263 kts 241°
2026-05-08 14:10 31.71751 131.01152 6538 ft 263 kts 241°
2026-05-08 14:10 31.70778 130.99340 6230 ft 263 kts 241°
2026-05-08 14:10 31.69802 130.97524 5920 ft 263 kts 241°
2026-05-08 14:11 31.68824 130.95707 5626 ft 263 kts 241°
2026-05-08 14:11 31.67851 130.93901 5309 ft 259 kts 241°
2026-05-08 14:11 31.66938 130.92111 4999 ft 251 kts 251°
2026-05-08 14:11 31.66507 130.90178 4745 ft 243 kts 263°
2026-05-08 14:12 31.66176 130.88229 4474 ft 244 kts 263°
2026-05-08 14:12 31.66006 130.86268 4159 ft 239 kts 284°
2026-05-08 14:12 31.66491 130.84469 3917 ft 227 kts 295°
2026-05-08 14:12 31.67021 130.82747 3657 ft 221 kts 295°
2026-05-08 14:13 31.67546 130.81075 3397 ft 214 kts 301°
2026-05-08 14:13 31.68486 130.79877 3165 ft 196 kts 335°
2026-05-08 14:13 31.69697 130.79125 2966 ft 201 kts 332°
2026-05-08 14:13 31.70909 130.78320 2753 ft 196 kts 333°
2026-05-08 14:14 31.72062 130.77555 2514 ft 185 kts 332°
2026-05-08 14:14 31.73148 130.76821 2285 ft 176 kts 331°
2026-05-08 14:14 31.74209 130.76101 2058 ft 178 kts 331°
2026-05-08 14:14 31.75289 130.75369 1821 ft 180 kts 330°
2026-05-08 14:15 31.76346 130.74651 1561 ft 169 kts 330°
2026-05-08 14:15 31.77311 130.73997 1355 ft 152 kts 330°
2026-05-08 14:15 31.78200 130.73386 1095 ft 146 kts 332°
2026-05-08 14:15 31.79070 130.72796 924 ft 145 kts 329°
2026-05-08 14:16 31.79882 130.72248 890 ft 112 kts 330°
2026-05-08 14:16 31.80371 130.71918 899 ft 50 kts 330°
2026-05-08 14:16 31.80505 130.71819 900 ft 10 kts 304°
2026-05-08 14:16 31.80501 130.71741 899 ft 10 kts 239°
2026-05-08 14:17 31.80476 130.71690 896 ft 8 kts 238°
2026-05-08 14:17 31.80441 130.71634 896 ft 2 kts 233°
2026-05-08 14:17 31.80432 130.71619 897 ft 2 kts 237°
2026-05-08 14:17 31.80424 130.71603 898 ft 2 kts 238°
2026-05-08 14:18 31.80416 130.71586 898 ft 3 kts 239°
2026-05-08 14:18 31.80404 130.71563 899 ft 4 kts 240°
2026-05-08 14:18 31.80388 130.71532 896 ft 5 kts 240°
2026-05-08 14:18 31.80378 130.71511 895 ft 2 kts 240°
2026-05-08 14:19 31.80378 130.71510 895 ft 0 kts 240°